owner,sensor,date,latitude,longitude,vertical_datum,wind_speed,wind_to_direction,wind_speed_of_gust,qcFlag 
FIT,ioos:station:wmo:SIPF1:1,2016-07-01T00:00:00Z,27.8620,-80.4450,1.0,2.5,223.0,99.0,'11111222,11111222,11144222' 
FIT,ioos:station:wmo:SIPF1:1,2016-07-01T00:15:00Z,27.8620,-80.4450,1.0,3.2,209.0,99.0,'11111222,11111222,11144222' 
FIT,ioos:station:wmo:SIPF1:1,2016-07-01T00:30:00Z,27.8620,-80.4450,1.0,2.5,215.0,99.0,'11111222,11111222,11144222' 
FIT,ioos:station:wmo:SIPF1:1,2016-07-01T00:45:00Z,27.8620,-80.4450,1.0,1.2,200.0,99.0,'11111222,11111222,11144222' 
FIT,ioos:station:wmo:SIPF1:1,2016-07-01T01:45:00Z,27.8620,-80.4450,1.0,0.0,0.0,99.0,'11111222,11111222,11144222' 
FIT,ioos:station:wmo:SIPF1:1,2016-07-01T02:00:00Z,27.8620,-80.4450,1.0,0.0,0.0,99.0,'11111222,11111222,11144222' 
FIT,ioos:station:wmo:SIPF1:1,2016-07-01T02:15:00Z,27.8620,-80.4450,1.0,0.0,0.0,99.0,'11111222,11111222,11144222' 
FIT,ioos:station:wmo:SIPF1:1,2016-07-01T02:30:00Z,27.8620,-80.4450,1.0,0.0,0.0,99.0,'11111222,11111222,11144222' 
FIT,ioos:station:wmo:SIPF1:1,2016-07-01T02:45:00Z,27.8620,-80.4450,1.0,0.3,217.0,99.0,'11111222,11111222,11144222' 
FIT,ioos:station:wmo:SIPF1:1,2016-07-01T03:00:00Z,27.8620,-80.4450,1.0,0.0,176.0,99.0,'11111222,11111222,11144222' 
FIT,ioos:station:wmo:SIPF1:1,2016-07-01T03:15:00Z,27.8620,-80.4450,1.0,2.8,169.0,99.0,'11111222,11111222,11144222' 
FIT,ioos:station:wmo:SIPF1:1,2016-07-01T03:30:00Z,27.8620,-80.4450,1.0,5.1,158.0,99.0,'11111222,11111222,11144222' 
FIT,ioos:station:wmo:SIPF1:1,2016-07-01T03:45:00Z,27.8620,-80.4450,1.0,6.1,160.0,99.0,'11111222,11111222,11144222' 
FIT,ioos:station:wmo:SIPF1:1,2016-07-01T04:00:00Z,27.8620,-80.4450,1.0,4.8,175.0,99.0,'11111222,11111222,11144222' 
FIT,ioos:station:wmo:SIPF1:1,2016-07-01T04:15:00Z,27.8620,-80.4450,1.0,3.5,182.0,99.0,'11111222,11111222,11144222' 
FIT,ioos:station:wmo:SIPF1:1,2016-07-01T04:30:00Z,27.8620,-80.4450,1.0,3.7,168.0,99.0,'11111222,11111222,11144222' 
FIT,ioos:station:wmo:SIPF1:1,2016-07-01T04:45:00Z,27.8620,-80.4450,1.0,4.0,163.0,99.0,'11111222,11111222,11144222' 
FIT,ioos:station:wmo:SIPF1:1,2016-07-01T05:00:00Z,27.8620,-80.4450,1.0,3.3,172.0,99.0,'11111222,11111222,11144222' 
FIT,ioos:station:wmo:SIPF1:1,2016-07-01T05:15:00Z,27.8620,-80.4450,1.0,4.1,162.0,99.0,'11111222,11111222,11144222' 
FIT,ioos:station:wmo:SIPF1:1,2016-07-01T05:30:00Z,27.8620,-80.4450,1.0,4.0,168.0,99.0,'11111222,11111222,11144222' 
FIT,ioos:station:wmo:SIPF1:1,2016-07-01T05:45:00Z,27.8620,-80.4450,1.0,4.5,170.0,99.0,'11111222,11111222,11144222' 
FIT,ioos:station:wmo:SIPF1:1,2016-07-01T06:00:00Z,27.8620,-80.4450,1.0,3.8,175.0,99.0,'11111222,11111222,11144222' 
FIT,ioos:station:wmo:SIPF1:1,2016-07-01T06:15:00Z,27.8620,-80.4450,1.0,3.0,187.0,99.0,'11111222,11111222,11144222' 
FIT,ioos:station:wmo:SIPF1:1,2016-07-01T06:30:00Z,27.8620,-80.4450,1.0,2.2,200.0,99.0,'11111222,11111222,11144222' 
FIT,ioos:station:wmo:SIPF1:1,2016-07-01T06:45:00Z,27.8620,-80.4450,1.0,2.4,211.0,99.0,'11111222,11111222,11144222' 
FIT,ioos:station:wmo:SIPF1:1,2016-07-01T07:00:00Z,27.8620,-80.4450,1.0,1.8,205.0,99.0,'11111222,11111222,11144222' 
FIT,ioos:station:wmo:SIPF1:1,2016-07-01T07:15:00Z,27.8620,-80.4450,1.0,2.5,206.0,99.0,'11111222,11111222,11144222' 
FIT,ioos:station:wmo:SIPF1:1,2016-07-01T07:45:00Z,27.8620,-80.4450,1.0,2.3,215.0,99.0,'11111222,11111222,11144222' 
FIT,ioos:station:wmo:SIPF1:1,2016-07-01T08:00:00Z,27.8620,-80.4450,1.0,2.1,214.0,99.0,'11111222,11111222,11144222' 
FIT,ioos:station:wmo:SIPF1:1,2016-07-01T08:15:00Z,27.8620,-80.4450,1.0,2.1,206.0,99.0,'11111222,11111222,11144222' 
FIT,ioos:station:wmo:SIPF1:1,2016-07-01T08:30:00Z,27.8620,-80.4450,1.0,3.2,203.0,99.0,'11111222,11111222,11144222' 
FIT,ioos:station:wmo:SIPF1:1,2016-07-01T08:45:00Z,27.8620,-80.4450,1.0,2.9,204.0,99.0,'11111222,11111222,11144222' 
FIT,ioos:station:wmo:SIPF1:1,2016-07-01T09:00:00Z,27.8620,-80.4450,1.0,2.6,209.0,99.0,'11111222,11111222,11144222' 
FIT,ioos:station:wmo:SIPF1:1,2016-07-01T09:15:00Z,27.8620,-80.4450,1.0,3.0,209.0,99.0,'11111222,11111222,11144222' 
FIT,ioos:station:wmo:SIPF1:1,2016-07-01T09:30:00Z,27.8620,-80.4450,1.0,2.9,212.0,99.0,'11111222,11111222,11144222' 
FIT,ioos:station:wmo:SIPF1:1,2016-07-01T09:45:00Z,27.8620,-80.4450,1.0,2.4,218.0,99.0,'11111222,11111222,11144222' 
FIT,ioos:station:wmo:SIPF1:1,2016-07-01T10:00:00Z,27.8620,-80.4450,1.0,2.6,211.0,99.0,'11111222,11111222,11144222' 
FIT,ioos:station:wmo:SIPF1:1,2016-07-01T10:15:00Z,27.8620,-80.4450,1.0,3.3,204.0,99.0,'11111222,11111222,11144222' 
FIT,ioos:station:wmo:SIPF1:1,2016-07-01T10:30:00Z,27.8620,-80.4450,1.0,3.0,213.0,99.0,'11111222,11111222,11144222' 
FIT,ioos:station:wmo:SIPF1:1,2016-07-01T10:45:00Z,27.8620,-80.4450,1.0,2.7,230.0,99.0,'11111222,11111222,11144222' 
FIT,ioos:station:wmo:SIPF1:1,2016-07-01T11:00:00Z,27.8620,-80.4450,1.0,2.6,232.0,99.0,'11111222,11111222,11144222' 
FIT,ioos:station:wmo:SIPF1:1,2016-07-01T11:15:00Z,27.8620,-80.4450,1.0,2.3,221.0,99.0,'11111222,11111222,11144222' 
FIT,ioos:station:wmo:SIPF1:1,2016-07-01T11:30:00Z,27.8620,-80.4450,1.0,2.1,221.0,99.0,'11111222,11111222,11144222' 
FIT,ioos:station:wmo:SIPF1:1,2016-07-01T11:45:00Z,27.8620,-80.4450,1.0,1.6,224.0,99.0,'11111222,11111222,11144222' 
FIT,ioos:station:wmo:SIPF1:1,2016-07-01T12:00:00Z,27.8620,-80.4450,1.0,1.8,216.0,99.0,'11111222,11111222,11144222' 
FIT,ioos:station:wmo:SIPF1:1,2016-07-01T12:15:00Z,27.8620,-80.4450,1.0,1.8,215.0,99.0,'11111222,11111222,11144222' 
FIT,ioos:station:wmo:SIPF1:1,2016-07-01T12:30:00Z,27.8620,-80.4450,1.0,2.0,231.0,99.0,'11111222,11111222,11144222' 
FIT,ioos:station:wmo:SIPF1:1,2016-07-01T12:45:00Z,27.8620,-80.4450,1.0,2.8,237.0,99.0,'11111222,11111222,11144222' 
FIT,ioos:station:wmo:SIPF1:1,2016-07-01T13:00:00Z,27.8620,-80.4450,1.0,2.1,234.0,99.0,'11111222,11111222,11144222' 
FIT,ioos:station:wmo:SIPF1:1,2016-07-01T13:15:00Z,27.8620,-80.4450,1.0,2.3,234.0,99.0,'11111222,11111222,11144222' 
FIT,ioos:station:wmo:SIPF1:1,2016-07-01T13:30:00Z,27.8620,-80.4450,1.0,1.7,231.0,99.0,'11111222,11111222,11144222' 
FIT,ioos:station:wmo:SIPF1:1,2016-07-01T13:45:00Z,27.8620,-80.4450,1.0,2.3,237.0,99.0,'11111222,11111222,11144222' 
FIT,ioos:station:wmo:SIPF1:1,2016-07-01T14:00:00Z,27.8620,-80.4450,1.0,3.5,237.0,99.0,'11111222,11111222,11144222' 
FIT,ioos:station:wmo:SIPF1:1,2016-07-01T14:15:00Z,27.8620,-80.4450,1.0,4.1,243.0,99.0,'11111222,11111222,11144222' 
FIT,ioos:station:wmo:SIPF1:1,2016-07-01T14:30:00Z,27.8620,-80.4450,1.0,3.3,240.0,99.0,'11111222,11111222,11144222' 
FIT,ioos:station:wmo:SIPF1:1,2016-07-01T14:45:00Z,27.8620,-80.4450,1.0,3.3,242.0,99.0,'11111222,11111222,11144222' 
FIT,ioos:station:wmo:SIPF1:1,2016-07-01T15:00:00Z,27.8620,-80.4450,1.0,2.6,237.0,99.0,'11111222,11111222,11144222' 
FIT,ioos:station:wmo:SIPF1:1,2016-07-01T15:15:00Z,27.8620,-80.4450,1.0,2.2,242.0,99.0,'11111222,11111222,11144222' 
FIT,ioos:station:wmo:SIPF1:1,2016-07-01T15:30:00Z,27.8620,-80.4450,1.0,2.3,240.0,99.0,'11111222,11111222,11144222' 
FIT,ioos:station:wmo:SIPF1:1,2016-07-01T15:45:00Z,27.8620,-80.4450,1.0,2.4,247.0,99.0,'11111222,11111222,11144222' 
FIT,ioos:station:wmo:SIPF1:1,2016-07-01T16:00:00Z,27.8620,-80.4450,1.0,2.7,242.0,99.0,'11111222,11111222,11144222' 
FIT,ioos:station:wmo:SIPF1:1,2016-07-01T16:15:00Z,27.8620,-80.4450,1.0,2.7,237.0,99.0,'11111222,11111222,11144222' 
FIT,ioos:station:wmo:SIPF1:1,2016-07-01T16:30:00Z,27.8620,-80.4450,1.0,2.4,251.0,99.0,'11111222,11111222,11144222' 
FIT,ioos:station:wmo:SIPF1:1,2016-07-01T16:45:00Z,27.8620,-80.4450,1.0,2.4,255.0,99.0,'11111222,11111222,11144222' 
FIT,ioos:station:wmo:SIPF1:1,2016-07-01T17:00:00Z,27.8620,-80.4450,1.0,2.0,241.0,99.0,'11111222,11111222,11144222' 
FIT,ioos:station:wmo:SIPF1:1,2016-07-01T17:15:00Z,27.8620,-80.4450,1.0,2.6,247.0,99.0,'11111222,11111222,11144222' 
FIT,ioos:station:wmo:SIPF1:1,2016-07-01T17:30:00Z,27.8620,-80.4450,1.0,1.2,227.0,99.0,'11111222,11111222,11144222' 
FIT,ioos:station:wmo:SIPF1:1,2016-07-01T17:45:00Z,27.8620,-80.4450,1.0,0.8,244.0,99.0,'11111222,11111222,11144222' 
FIT,ioos:station:wmo:SIPF1:1,2016-07-01T18:00:00Z,27.8620,-80.4450,1.0,0.8,249.0,99.0,'11111222,11111222,11144222' 
FIT,ioos:station:wmo:SIPF1:1,2016-07-01T18:15:00Z,27.8620,-80.4450,1.0,0.5,120.0,99.0,'11111222,11111222,11144222' 
FIT,ioos:station:wmo:SIPF1:1,2016-07-01T18:30:00Z,27.8620,-80.4450,1.0,3.7,114.0,99.0,'11111222,11111222,11144222' 
FIT,ioos:station:wmo:SIPF1:1,2016-07-01T18:45:00Z,27.8620,-80.4450,1.0,4.1,119.0,99.0,'11111222,11111222,11144222' 
FIT,ioos:station:wmo:SIPF1:1,2016-07-01T19:00:00Z,27.8620,-80.4450,1.0,4.9,121.0,99.0,'11111222,11111222,11144222' 
FIT,ioos:station:wmo:SIPF1:1,2016-07-01T19:15:00Z,27.8620,-80.4450,1.0,5.3,126.0,99.0,'11111222,11111222,11144222' 
FIT,ioos:station:wmo:SIPF1:1,2016-07-01T19:30:00Z,27.8620,-80.4450,1.0,5.3,126.0,99.0,'11111222,11111222,11144222' 
FIT,ioos:station:wmo:SIPF1:1,2016-07-01T19:45:00Z,27.8620,-80.4450,1.0,5.1,128.0,99.0,'11111222,11111222,11144222' 
FIT,ioos:station:wmo:SIPF1:1,2016-07-01T20:00:00Z,27.8620,-80.4450,1.0,5.0,128.0,99.0,'11111222,11111222,11144222' 
FIT,ioos:station:wmo:SIPF1:1,2016-07-01T20:15:00Z,27.8620,-80.4450,1.0,5.6,127.0,99.0,'11111222,11111222,11144222' 
FIT,ioos:station:wmo:SIPF1:1,2016-07-01T20:30:00Z,27.8620,-80.4450,1.0,5.7,122.0,99.0,'11111222,11111222,11144222' 
FIT,ioos:station:wmo:SIPF1:1,2016-07-01T20:45:00Z,27.8620,-80.4450,1.0,6.0,128.0,99.0,'11111222,11111222,11144222' 
FIT,ioos:station:wmo:SIPF1:1,2016-07-01T21:00:00Z,27.8620,-80.4450,1.0,7.1,134.0,99.0,'11111222,11111222,11144222' 
FIT,ioos:station:wmo:SIPF1:1,2016-07-01T21:15:00Z,27.8620,-80.4450,1.0,7.6,142.0,99.0,'11111222,11111222,11144222' 
FIT,ioos:station:wmo:SIPF1:1,2016-07-01T21:30:00Z,27.8620,-80.4450,1.0,7.3,137.0,99.0,'11111222,11111222,11144222' 
FIT,ioos:station:wmo:SIPF1:1,2016-07-01T21:45:00Z,27.8620,-80.4450,1.0,8.2,140.0,99.0,'11111222,11111222,11144222' 
FIT,ioos:station:wmo:SIPF1:1,2016-07-01T22:00:00Z,27.8620,-80.4450,1.0,7.9,143.0,99.0,'11111222,11111222,11144222' 
FIT,ioos:station:wmo:SIPF1:1,2016-07-01T22:15:00Z,27.8620,-80.4450,1.0,8.2,144.0,99.0,'11111222,11111222,11144222' 
FIT,ioos:station:wmo:SIPF1:1,2016-07-01T22:30:00Z,27.8620,-80.4450,1.0,7.7,147.0,99.0,'11111222,11111222,11144222' 
FIT,ioos:station:wmo:SIPF1:1,2016-07-01T22:45:00Z,27.8620,-80.4450,1.0,7.2,157.0,99.0,'11111222,11111222,11144222' 
FIT,ioos:station:wmo:SIPF1:1,2016-07-01T23:00:00Z,27.8620,-80.4450,1.0,6.6,161.0,99.0,'11111222,11111222,11144222' 
FIT,ioos:station:wmo:SIPF1:1,2016-07-01T23:15:00Z,27.8620,-80.4450,1.0,3.8,205.0,99.0,'11111222,11111222,11144222' 
FIT,ioos:station:wmo:SIPF1:1,2016-07-01T23:30:00Z,27.8620,-80.4450,1.0,1.0,243.0,99.0,'11111222,11111222,11144222' 
FIT,ioos:station:wmo:SIPF1:1,2016-07-01T23:45:00Z,27.8620,-80.4450,1.0,0.0,0.0,99.0,'11111222,11111222,11144222' 
FIT,ioos:station:wmo:SIPF1:1,2016-07-02T00:00:00Z,27.8620,-80.4450,1.0,0.1,320.0,99.0,'11111222,11111222,11144222' 
FIT,ioos:station:wmo:SIPF1:1,2016-07-02T00:15:00Z,27.8620,-80.4450,1.0,6.3,4.0,99.0,'11111222,11111222,11144222' 
FIT,ioos:station:wmo:SIPF1:1,2016-07-02T00:30:00Z,27.8620,-80.4450,1.0,8.5,13.0,99.0,'11111222,11111222,11144222' 
FIT,ioos:station:wmo:SIPF1:1,2016-07-02T00:45:00Z,27.8620,-80.4450,1.0,5.2,15.0,99.0,'11111222,11111222,11144222' 
FIT,ioos:station:wmo:SIPF1:1,2016-07-02T01:00:00Z,27.8620,-80.4450,1.0,4.2,22.0,99.0,'11111222,11111222,11144222' 
FIT,ioos:station:wmo:SIPF1:1,2016-07-02T01:15:00Z,27.8620,-80.4450,1.0,5.9,47.0,99.0,'11111222,11111222,11144222' 
FIT,ioos:station:wmo:SIPF1:1,2016-07-02T01:30:00Z,27.8620,-80.4450,1.0,6.5,59.0,99.0,'11111222,11111222,11144222' 
FIT,ioos:station:wmo:SIPF1:1,2016-07-02T01:45:00Z,27.8620,-80.4450,1.0,5.3,64.0,99.0,'11111222,11111222,11144222' 
FIT,ioos:station:wmo:SIPF1:1,2016-07-02T02:00:00Z,27.8620,-80.4450,1.0,5.4,53.0,99.0,'11111222,11111222,11144222' 
FIT,ioos:station:wmo:SIPF1:1,2016-07-02T02:15:00Z,27.8620,-80.4450,1.0,5.2,71.0,99.0,'11111222,11111222,11144222' 
FIT,ioos:station:wmo:SIPF1:1,2016-07-02T02:30:00Z,27.8620,-80.4450,1.0,5.3,76.0,99.0,'11111222,11111222,11144222' 
FIT,ioos:station:wmo:SIPF1:1,2016-07-02T02:45:00Z,27.8620,-80.4450,1.0,5.6,69.0,99.0,'11111222,11111222,11144222' 
FIT,ioos:station:wmo:SIPF1:1,2016-07-02T03:00:00Z,27.8620,-80.4450,1.0,6.2,89.0,99.0,'11111222,11111222,11144222' 
FIT,ioos:station:wmo:SIPF1:1,2016-07-02T03:15:00Z,27.8620,-80.4450,1.0,5.8,98.0,99.0,'11111222,11111222,11144222' 
FIT,ioos:station:wmo:SIPF1:1,2016-07-02T03:30:00Z,27.8620,-80.4450,1.0,4.4,104.0,99.0,'11111222,11111222,11144222' 
FIT,ioos:station:wmo:SIPF1:1,2016-07-02T03:45:00Z,27.8620,-80.4450,1.0,3.9,109.0,99.0,'11111222,11111222,11144222' 
FIT,ioos:station:wmo:SIPF1:1,2016-07-02T04:00:00Z,27.8620,-80.4450,1.0,4.5,125.0,99.0,'11111222,11111222,11144222' 
FIT,ioos:station:wmo:SIPF1:1,2016-07-02T04:15:00Z,27.8620,-80.4450,1.0,4.3,133.0,99.0,'11111222,11111222,11144222' 
FIT,ioos:station:wmo:SIPF1:1,2016-07-02T04:30:00Z,27.8620,-80.4450,1.0,4.9,136.0,99.0,'11111222,11111222,11144222' 
FIT,ioos:station:wmo:SIPF1:1,2016-07-02T04:45:00Z,27.8620,-80.4450,1.0,5.5,135.0,99.0,'11111222,11111222,11144222' 
FIT,ioos:station:wmo:SIPF1:1,2016-07-02T05:00:00Z,27.8620,-80.4450,1.0,6.2,132.0,99.0,'11111222,11111222,11144222' 
FIT,ioos:station:wmo:SIPF1:1,2016-07-02T05:15:00Z,27.8620,-80.4450,1.0,5.6,144.0,99.0,'11111222,11111222,11144222' 
FIT,ioos:station:wmo:SIPF1:1,2016-07-02T05:30:00Z,27.8620,-80.4450,1.0,4.7,146.0,99.0,'11111222,11111222,11144222' 
FIT,ioos:station:wmo:SIPF1:1,2016-07-02T05:45:00Z,27.8620,-80.4450,1.0,4.1,147.0,99.0,'11111222,11111222,11144222' 
FIT,ioos:station:wmo:SIPF1:1,2016-07-02T06:00:00Z,27.8620,-80.4450,1.0,3.4,168.0,99.0,'11111222,11111222,11144222' 
FIT,ioos:station:wmo:SIPF1:1,2016-07-02T06:15:00Z,27.8620,-80.4450,1.0,3.0,176.0,99.0,'11111222,11111222,11144222' 
FIT,ioos:station:wmo:SIPF1:1,2016-07-02T06:30:00Z,27.8620,-80.4450,1.0,2.5,188.0,99.0,'11111222,11111222,11144222' 
FIT,ioos:station:wmo:SIPF1:1,2016-07-02T06:45:00Z,27.8620,-80.4450,1.0,1.9,195.0,99.0,'11111222,11111222,11144222' 
FIT,ioos:station:wmo:SIPF1:1,2016-07-02T07:00:00Z,27.8620,-80.4450,1.0,1.5,197.0,99.0,'11111222,11111222,11144222' 
FIT,ioos:station:wmo:SIPF1:1,2016-07-02T07:15:00Z,27.8620,-80.4450,1.0,1.5,200.0,99.0,'11111222,11111222,11144222' 
FIT,ioos:station:wmo:SIPF1:1,2016-07-02T07:30:00Z,27.8620,-80.4450,1.0,1.8,200.0,99.0,'11111222,11111222,11144222' 
FIT,ioos:station:wmo:SIPF1:1,2016-07-02T07:45:00Z,27.8620,-80.4450,1.0,1.5,206.0,99.0,'11111222,11111222,11144222' 
FIT,ioos:station:wmo:SIPF1:1,2016-07-02T08:00:00Z,27.8620,-80.4450,1.0,0.0,215.0,99.0,'11111222,11111222,11144222' 
FIT,ioos:station:wmo:SIPF1:1,2016-07-02T08:15:00Z,27.8620,-80.4450,1.0,0.7,201.0,99.0,'11111222,11111222,11144222' 
FIT,ioos:station:wmo:SIPF1:1,2016-07-02T08:30:00Z,27.8620,-80.4450,1.0,1.6,201.0,99.0,'11111222,11111222,11144222' 
FIT,ioos:station:wmo:SIPF1:1,2016-07-02T08:45:00Z,27.8620,-80.4450,1.0,1.7,197.0,99.0,'11111222,11111222,11144222' 
FIT,ioos:station:wmo:SIPF1:1,2016-07-02T09:00:00Z,27.8620,-80.4450,1.0,1.9,215.0,99.0,'11111222,11111222,11144222' 
FIT,ioos:station:wmo:SIPF1:1,2016-07-02T09:15:00Z,27.8620,-80.4450,1.0,0.9,224.0,99.0,'11111222,11111222,11144222' 
FIT,ioos:station:wmo:SIPF1:1,2016-07-02T09:30:00Z,27.8620,-80.4450,1.0,0.5,223.0,99.0,'11111222,11111222,11144222' 
FIT,ioos:station:wmo:SIPF1:1,2016-07-02T09:45:00Z,27.8620,-80.4450,1.0,0.0,0.0,99.0,'11111222,11111222,11144222' 
FIT,ioos:station:wmo:SIPF1:1,2016-07-02T10:00:00Z,27.8620,-80.4450,1.0,0.0,0.0,99.0,'11111222,11111222,11144222' 
FIT,ioos:station:wmo:SIPF1:1,2016-07-02T10:15:00Z,27.8620,-80.4450,1.0,0.0,195.0,99.0,'11111222,11111222,11144222' 
FIT,ioos:station:wmo:SIPF1:1,2016-07-02T10:30:00Z,27.8620,-80.4450,1.0,0.3,197.0,99.0,'11111222,11111222,11144222' 
FIT,ioos:station:wmo:SIPF1:1,2016-07-02T10:45:00Z,27.8620,-80.4450,1.0,0.8,195.0,99.0,'11111222,11111222,11144222' 
FIT,ioos:station:wmo:SIPF1:1,2016-07-02T11:00:00Z,27.8620,-80.4450,1.0,1.2,196.0,99.0,'11111222,11111222,11144222' 
FIT,ioos:station:wmo:SIPF1:1,2016-07-02T11:15:00Z,27.8620,-80.4450,1.0,1.7,196.0,99.0,'11111222,11111222,11144222' 
FIT,ioos:station:wmo:SIPF1:1,2016-07-02T11:30:00Z,27.8620,-80.4450,1.0,2.6,193.0,99.0,'11111222,11111222,11144222' 
FIT,ioos:station:wmo:SIPF1:1,2016-07-02T11:45:00Z,27.8620,-80.4450,1.0,3.2,189.0,99.0,'11111222,11111222,11144222' 
FIT,ioos:station:wmo:SIPF1:1,2016-07-02T12:00:00Z,27.8620,-80.4450,1.0,2.9,200.0,99.0,'11111222,11111222,11144222' 
FIT,ioos:station:wmo:SIPF1:1,2016-07-02T12:15:00Z,27.8620,-80.4450,1.0,3.0,205.0,99.0,'11111222,11111222,11144222' 
FIT,ioos:station:wmo:SIPF1:1,2016-07-02T12:30:00Z,27.8620,-80.4450,1.0,3.4,209.0,99.0,'11111222,11111222,11144222' 
FIT,ioos:station:wmo:SIPF1:1,2016-07-02T12:45:00Z,27.8620,-80.4450,1.0,3.0,221.0,99.0,'11111222,11111222,11144222' 
FIT,ioos:station:wmo:SIPF1:1,2016-07-02T13:00:00Z,27.8620,-80.4450,1.0,2.5,224.0,99.0,'11111222,11111222,11144222' 
FIT,ioos:station:wmo:SIPF1:1,2016-07-02T13:15:00Z,27.8620,-80.4450,1.0,2.4,215.0,99.0,'11111222,11111222,11144222' 
FIT,ioos:station:wmo:SIPF1:1,2016-07-02T13:30:00Z,27.8620,-80.4450,1.0,2.6,223.0,99.0,'11111222,11111222,11144222' 
FIT,ioos:station:wmo:SIPF1:1,2016-07-02T13:45:00Z,27.8620,-80.4450,1.0,2.3,204.0,99.0,'11111222,11111222,11144222' 
FIT,ioos:station:wmo:SIPF1:1,2016-07-02T14:00:00Z,27.8620,-80.4450,1.0,2.2,209.0,99.0,'11111222,11111222,11144222' 
FIT,ioos:station:wmo:SIPF1:1,2016-07-02T14:15:00Z,27.8620,-80.4450,1.0,2.5,222.0,99.0,'11111222,11111222,11144222' 
FIT,ioos:station:wmo:SIPF1:1,2016-07-02T14:30:00Z,27.8620,-80.4450,1.0,2.4,241.0,99.0,'11111222,11111222,11144222' 
FIT,ioos:station:wmo:SIPF1:1,2016-07-02T14:45:00Z,27.8620,-80.4450,1.0,2.1,237.0,99.0,'11111222,11111222,11144222' 
FIT,ioos:station:wmo:SIPF1:1,2016-07-02T15:00:00Z,27.8620,-80.4450,1.0,1.7,236.0,99.0,'11111222,11111222,11144222' 
FIT,ioos:station:wmo:SIPF1:1,2016-07-02T15:15:00Z,27.8620,-80.4450,1.0,0.9,244.0,99.0,'11111222,11111222,11144222' 
FIT,ioos:station:wmo:SIPF1:1,2016-07-02T15:30:00Z,27.8620,-80.4450,1.0,0.0,207.0,99.0,'11111222,11111222,11144222' 
FIT,ioos:station:wmo:SIPF1:1,2016-07-02T15:45:00Z,27.8620,-80.4450,1.0,0.8,199.0,99.0,'11111222,11111222,11144222' 
FIT,ioos:station:wmo:SIPF1:1,2016-07-02T16:00:00Z,27.8620,-80.4450,1.0,1.3,196.0,99.0,'11111222,11111222,11144222' 
FIT,ioos:station:wmo:SIPF1:1,2016-07-02T16:15:00Z,27.8620,-80.4450,1.0,0.3,173.0,99.0,'11111222,11111222,11144222' 
FIT,ioos:station:wmo:SIPF1:1,2016-07-02T16:30:00Z,27.8620,-80.4450,1.0,0.7,244.0,99.0,'11111222,11111222,11144222' 
FIT,ioos:station:wmo:SIPF1:1,2016-07-02T16:45:00Z,27.8620,-80.4450,1.0,0.6,241.0,99.0,'11111222,11111222,11144222' 
FIT,ioos:station:wmo:SIPF1:1,2016-07-02T17:00:00Z,27.8620,-80.4450,1.0,1.8,227.0,99.0,'11111222,11111222,11144222' 
FIT,ioos:station:wmo:SIPF1:1,2016-07-02T17:15:00Z,27.8620,-80.4450,1.0,3.0,240.0,99.0,'11111222,11111222,11144222' 
FIT,ioos:station:wmo:SIPF1:1,2016-07-02T17:30:00Z,27.8620,-80.4450,1.0,2.0,218.0,99.0,'11111222,11111222,11144222' 
FIT,ioos:station:wmo:SIPF1:1,2016-07-02T17:45:00Z,27.8620,-80.4450,1.0,5.1,129.0,99.0,'11111222,11111222,11144222' 
FIT,ioos:station:wmo:SIPF1:1,2016-07-02T18:00:00Z,27.8620,-80.4450,1.0,5.3,128.0,99.0,'11111222,11111222,11144222' 
FIT,ioos:station:wmo:SIPF1:1,2016-07-02T18:15:00Z,27.8620,-80.4450,1.0,5.1,125.0,99.0,'11111222,11111222,11144222' 
FIT,ioos:station:wmo:SIPF1:1,2016-07-02T18:30:00Z,27.8620,-80.4450,1.0,5.5,130.0,99.0,'11111222,11111222,11144222' 
FIT,ioos:station:wmo:SIPF1:1,2016-07-02T18:45:00Z,27.8620,-80.4450,1.0,6.5,132.0,99.0,'11111222,11111222,11144222' 
FIT,ioos:station:wmo:SIPF1:1,2016-07-02T19:00:00Z,27.8620,-80.4450,1.0,7.5,144.0,99.0,'11111222,11111222,11144222' 
FIT,ioos:station:wmo:SIPF1:1,2016-07-02T19:15:00Z,27.8620,-80.4450,1.0,8.1,143.0,99.0,'11111222,11111222,11144222' 
FIT,ioos:station:wmo:SIPF1:1,2016-07-02T19:30:00Z,27.8620,-80.4450,1.0,7.9,147.0,99.0,'11111222,11111222,11144222' 
FIT,ioos:station:wmo:SIPF1:1,2016-07-02T19:45:00Z,27.8620,-80.4450,1.0,7.7,152.0,99.0,'11111222,11111222,11144222' 
FIT,ioos:station:wmo:SIPF1:1,2016-07-02T20:00:00Z,27.8620,-80.4450,1.0,7.9,154.0,99.0,'11111222,11111222,11144222' 
FIT,ioos:station:wmo:SIPF1:1,2016-07-02T20:15:00Z,27.8620,-80.4450,1.0,7.8,155.0,99.0,'11111222,11111222,11144222' 
FIT,ioos:station:wmo:SIPF1:1,2016-07-02T20:30:00Z,27.8620,-80.4450,1.0,7.8,151.0,99.0,'11111222,11111222,11144222' 
FIT,ioos:station:wmo:SIPF1:1,2016-07-02T20:45:00Z,27.8620,-80.4450,1.0,7.4,151.0,99.0,'11111222,11111222,11144222' 
FIT,ioos:station:wmo:SIPF1:1,2016-07-02T21:00:00Z,27.8620,-80.4450,1.0,5.8,168.0,99.0,'11111222,11111222,11144222' 
FIT,ioos:station:wmo:SIPF1:1,2016-07-02T21:15:00Z,27.8620,-80.4450,1.0,6.8,283.0,99.0,'11111222,11111222,11144222' 
FIT,ioos:station:wmo:SIPF1:1,2016-07-02T21:30:00Z,27.8620,-80.4450,1.0,9.8,302.0,99.0,'11111222,11111222,11144222' 
FIT,ioos:station:wmo:SIPF1:1,2016-07-02T21:45:00Z,27.8620,-80.4450,1.0,4.5,349.0,99.0,'11111222,11111222,11144222' 
FIT,ioos:station:wmo:SIPF1:1,2016-07-02T22:00:00Z,27.8620,-80.4450,1.0,3.5,355.0,99.0,'11111222,11111222,11144222' 
FIT,ioos:station:wmo:SIPF1:1,2016-07-02T22:15:00Z,27.8620,-80.4450,1.0,1.1,355.0,99.0,'11111222,11111222,11144222' 
FIT,ioos:station:wmo:SIPF1:1,2016-07-02T22:30:00Z,27.8620,-80.4450,1.0,0.6,310.0,99.0,'11111222,11111222,11144222' 
FIT,ioos:station:wmo:SIPF1:1,2016-07-02T22:45:00Z,27.8620,-80.4450,1.0,1.1,287.0,99.0,'11111222,11111222,11144222' 
FIT,ioos:station:wmo:SIPF1:1,2016-07-02T23:00:00Z,27.8620,-80.4450,1.0,0.4,236.0,99.0,'11111222,11111222,11144222' 
FIT,ioos:station:wmo:SIPF1:1,2016-07-02T23:15:00Z,27.8620,-80.4450,1.0,0.0,0.0,99.0,'11111222,11111222,11144222' 
FIT,ioos:station:wmo:SIPF1:1,2016-07-02T23:30:00Z,27.8620,-80.4450,1.0,0.0,0.0,99.0,'11111222,11111222,11144222' 
FIT,ioos:station:wmo:SIPF1:1,2016-07-02T23:45:00Z,27.8620,-80.4450,1.0,1.0,230.0,99.0,'11111222,11111222,11144222' 
FIT,ioos:station:wmo:SIPF1:1,2016-07-03T00:00:00Z,27.8620,-80.4450,1.0,0.2,229.0,99.0,'11111222,11111222,11144222' 
FIT,ioos:station:wmo:SIPF1:1,2016-07-03T00:15:00Z,27.8620,-80.4450,1.0,0.0,0.0,99.0,'11111222,11111222,11144222' 
FIT,ioos:station:wmo:SIPF1:1,2016-07-03T00:30:00Z,27.8620,-80.4450,1.0,0.1,175.0,99.0,'11111222,11111222,11144222' 
FIT,ioos:station:wmo:SIPF1:1,2016-07-03T00:45:00Z,27.8620,-80.4450,1.0,0.5,186.0,99.0,'11111222,11111222,11144222' 
FIT,ioos:station:wmo:SIPF1:1,2016-07-03T01:00:00Z,27.8620,-80.4450,1.0,1.4,203.0,99.0,'11111222,11111222,11144222' 
FIT,ioos:station:wmo:SIPF1:1,2016-07-03T01:15:00Z,27.8620,-80.4450,1.0,1.3,217.0,99.0,'11111222,11111222,11144222' 
FIT,ioos:station:wmo:SIPF1:1,2016-07-03T01:30:00Z,27.8620,-80.4450,1.0,0.6,212.0,99.0,'11111222,11111222,11144222' 
FIT,ioos:station:wmo:SIPF1:1,2016-07-03T01:45:00Z,27.8620,-80.4450,1.0,0.0,0.0,99.0,'11111222,11111222,11144222' 
FIT,ioos:station:wmo:SIPF1:1,2016-07-03T02:00:00Z,27.8620,-80.4450,1.0,0.0,0.0,99.0,'11111222,11111222,11144222' 
FIT,ioos:station:wmo:SIPF1:1,2016-07-03T02:15:00Z,27.8620,-80.4450,1.0,0.0,0.0,99.0,'11111222,11111222,11144222' 
FIT,ioos:station:wmo:SIPF1:1,2016-07-03T02:30:00Z,27.8620,-80.4450,1.0,0.5,206.0,99.0,'11111222,11111222,11144222' 
FIT,ioos:station:wmo:SIPF1:1,2016-07-03T02:45:00Z,27.8620,-80.4450,1.0,2.3,204.0,99.0,'11111222,11111222,11144222' 
FIT,ioos:station:wmo:SIPF1:1,2016-07-03T03:00:00Z,27.8620,-80.4450,1.0,2.0,207.0,99.0,'11111222,11111222,11144222' 
FIT,ioos:station:wmo:SIPF1:1,2016-07-03T03:15:00Z,27.8620,-80.4450,1.0,1.9,210.0,99.0,'11111222,11111222,11144222' 
FIT,ioos:station:wmo:SIPF1:1,2016-07-03T03:30:00Z,27.8620,-80.4450,1.0,1.8,211.0,99.0,'11111222,11111222,11144222' 
FIT,ioos:station:wmo:SIPF1:1,2016-07-03T03:45:00Z,27.8620,-80.4450,1.0,1.6,208.0,99.0,'11111222,11111222,11144222' 
FIT,ioos:station:wmo:SIPF1:1,2016-07-03T04:00:00Z,27.8620,-80.4450,1.0,1.0,210.0,99.0,'11111222,11111222,11144222' 
FIT,ioos:station:wmo:SIPF1:1,2016-07-03T04:15:00Z,27.8620,-80.4450,1.0,1.4,205.0,99.0,'11111222,11111222,11144222' 